Location: Bidart
(43.4376°N, 1.5913°W)
Time: 21:05:13
(UTC+00:00)

USA 229 DEB - Pass Details

Date: 19 May 2025
Orbit: 872 x 1339 km, 63.4° (Epoch: 20 June)

Event Time Altitude Azimuth Distance (km) Brightness Sun altitude
Exits shadow 23:20:43 61° 137° (SE) 1,075 3.4 -25.8°
Maximum altitude 23:21:04 62° 120° (ESE) 1,070 3.4 -25.9°
Drops below altitude 10° 23:27:33 10° 42° (NE) 2,838 6.4 -26.1°
Sets 23:30:20 0° 39° (NE) 3,867 7.2 -26.1°
